Location: Fort Wayne
(41.1310°N, 85.1290°W)
Time: 07:36:06
(UTC-04:00)

Meteor 2-10 Rocket - Visible Passes

Search period start: 26 April 2018 00:00
Search period end: 06 May 2018 00:00
Orbit: 735 x 884 km, 81.2° (Epoch: 26 April)

Date Brightness Start Highest point End Pass type
(mag) Time Alt. Az. Time Alt. Az. Time Alt. Az.
26 Apr 4.4 21:00:09 10° SSE 21:05:18 35° E 21:10:30 10° NNE visible
26 Apr 5.5 22:42:11 10° SW 22:47:19 32° WNW 22:52:31 10° N visible
27 Apr 4.9 22:17:25 10° SSW 22:22:55 44° WNW 22:28:29 10° N visible
28 Apr 4.4 21:52:50 10° SSW 21:58:33 61° WNW 22:04:20 10° N visible
29 Apr 3.9 21:28:26 10° S 21:34:14 83° W 21:40:06 10° N visible
29 Apr 6.7 23:15:04 10° W 23:17:13 12° WNW 23:19:21 10° NW visible
30 Apr 3.8 21:04:12 10° S 21:09:58 72° E 21:15:47 10° NNE visible
30 Apr 6.6 22:49:02 10° WSW 22:52:38 17° WNW 22:56:15 10° NNW visible
01 May 6.2 22:23:38 10° WSW 22:28:06 22° WNW 22:32:36 10° NNW visible
02 May 5.8 21:58:36 10° SW 22:03:38 30° WNW 22:08:43 10° N visible
03 May 5.3 21:33:46 10° SW 21:39:13 41° WNW 21:44:42 10° N visible
04 May 4.6 21:09:09 10° SSW 21:14:52 56° WNW 21:20:34 10° N visible
05 May 7.3 06:03:49 10° NE 06:06:00 12° ENE 06:08:09 10° E visible
05 May 7.1 22:32:05 10° WNW 22:33:33 11° WNW 22:35:01 10° NW visible
